Theta_e
342 338 344 339 320 320 312 314 320 319 318 324 322 323 320 324 320 312 333 346 345 345 353 355 359 355 354 353 353 352 352 353 353 353 353 352 352 353 356 357 357 355 356 355 355 354 354 354 354
333 336 330 326 314 311 310 317 316 320 323 323 321 324 319 319 327 330 334 343 345 346 351 353 359 355 353 352 352 352 352 351 351 351 351 351 352 352 353 354 353 353 353 352 352 352 352 352 352
338 332 319 318 313 310 310 317 319 322 324 323 318 324 322 321 328 331 338 343 344 346 351 355 358 355 352 352 352 352 352 352 352 352 353 353 353 353 354 353 353 351 350 350 350 350 352 353 353
323 322 321 314 309 314 317 319 321 320 321 322 322 318 325 332 331 334 341 341 342 347 351 357 358 355 352 351 352 352 352 352 352 352 352 352 352 351 351 350 348 348 348 348 350 353 355 355 356
325 318 312 314 314 317 321 323 322 318 319 318 323 319 321 331 334 337 339 339 342 345 348 351 357 355 352 351 351 352 352 352 352 351 350 349 348 346 346 345 346 347 350 351 353 354 357 357 358
313 316 308 306 306 320 321 323 322 318 316 318 318 318 321 332 332 336 337 338 342 340 344 349 355 356 355 353 353 353 353 353 351 350 348 347 347 347 348 349 350 351 353 354 354 357 359 359 360
311 312 310 313 312 318 321 325 320 317 316 316 321 315 322 328 333 336 337 338 337 340 340 345 346 352 355 355 354 353 353 352 351 350 350 351 354 353 353 353 352 353 354 355 356 358 359 359 358
316 314 310 315 313 314 323 322 321 317 314 322 323 314 318 328 334 335 336 335 335 335 337 338 343 342 345 348 354 354 353 352 352 351 354 355 356 357 357 356 354 356 357 357 358 358 358 358 357
319 310 308 313 317 317 325 320 321 320 316 319 322 321 327 331 333 332 331 331 332 331 334 336 336 338 339 341 348 353 352 352 353 354 355 354 353 356 357 359 361 359 358 357 356 357 357 356 357
314 310 312 318 321 318 324 321 317 316 317 315 320 325 328 330 329 327 327 327 329 330 332 334 335 337 337 338 344 345 344 346 348 352 357 353 357 357 358 359 360 359 358 359 358 358 358 354 336
315 310 316 318 320 325 322 321 321 316 315 316 318 322 326 327 327 325 326 327 329 332 334 335 340 350 338 340 341 346 347 349 354 362 363 366 355 358 354 357 353 356 356 338 343 347 335 335 334
312 316 318 319 323 321 322 323 320 318 319 320 322 324 325 325 324 324 325 327 328 331 333 336 340 348 346 345 345 351 349 353 354 358 363 365 357 360 358 352 346 339 339 337 337 331 335 334 335
312 314 317 320 322 321 323 321 321 320 323 321 323 323 324 324 325 326 326 327 329 330 333 335 341 351 357 357 355 358 359 356 358 360 360 358 359 358 356 347 341 338 337 332 332 332 332 330 333
315 315 315 319 321 322 323 321 322 323 325 320 321 321 323 323 324 326 327 327 330 335 335 338 341 357 352 362 365 365 362 362 361 356 359 361 359 357 351 342 340 338 335 334 332 332 332 331 329
315 312 314 319 321 322 324 318 319 325 325 320 320 321 322 324 325 325 328 333 334 338 339 342 345 350 357 358 363 366 358 359 357 360 360 359 354 352 347 339 339 337 338 334 335 332 333 330 329
312 313 309 317 321 323 321 311 319 325 323 321 320 320 321 323 324 326 328 333 339 337 344 346 342 348 358 359 361 361 362 365 357 356 356 352 348 345 344 338 336 337 337 335 335 333 331 329 326
313 306 309 313 321 320 319 313 320 323 323 322 323 321 320 323 326 330 329 333 340 343 345 348 351 347 351 364 363 369 364 365 360 357 352 346 339 337 339 337 337 340 336 334 333 333 331 329 326
305 307 309 310 317 319 317 314 320 323 322 322 323 324 322 323 326 331 332 334 339 343 349 352 351 362 355 361 367 362 359 358 353 351 341 340 335 336 338 338 339 336 334 333 333 334 334 332 327
310 309 309 312 319 315 312 315 319 321 321 321 322 325 326 326 330 333 334 337 340 344 349 351 356 363 355 357 354 351 351 351 348 345 342 337 335 338 341 337 338 336 335 336 334 332 328 329 328
308 307 308 314 319 317 316 314 319 321 322 321 322 324 326 328 329 333 334 337 338 343 349 351 354 361 358 358 357 350 350 348 344 341 337 338 339 338 338 339 337 340 334 336 334 332 327 325 330
307 306 307 309 315 318 316 312 314 318 320 322 323 323 327 327 328 332 335 337 341 343 348 352 354 361 360 356 350 349 343 340 338 331 333 335 335 336 337 338 336 336 336 332 334 332 330 323 324
304 309 308 309 308 306 315 302 312 313 315 317 320 322 322 327 330 331 335 338 339 343 349 354 356 360 359 357 349 341 335 329 329 327 332 333 337 336 338 338 339 339 335 335 333 333 330 327 320
305 310 308 308 306 307 308 304 306 312 310 313 317 319 322 324 328 330 332 337 339 342 347 354 360 359 356 354 350 339 332 329 327 327 330 333 337 338 335 338 338 338 336 335 334 333 330 327 324
309 307 307 308 305 299 304 303 303 307 311 314 317 319 321 322 324 330 333 336 337 342 347 356 356 355 354 352 347 335 333 328 325 329 328 329 332 335 337 338 339 338 337 334 333 332 329 327 326
307 304 297 296 296 296 305 302 305 311 314 315 317 318 321 323 324 325 331 333 341 343 350 351 353 350 351 349 343 336 333 331 329 329 328 328 330 331 336 338 338 337 336 333 333 331 329 325 324
305 305 297 292 294 297 305 299 304 314 316 318 318 319 320 321 322 327 340 343 340 333 348 350 350 349 350 346 341 338 335 334 329 332 330 330 330 332 337 337 337 335 334 332 330 330 326 324 321
305 303 307 302 302 297 301 306 312 314 315 316 316 317 320 325 326 325 328 342 332 327 330 347 351 348 346 344 340 338 338 338 330 335 335 332 336 336 335 336 333 333 331 329 327 327 323 322 321
308 309 302 304 296 294 298 302 304 312 314 316 316 318 322 325 323 324 327 343 340 332 347 352 350 346 344 343 341 339 340 339 336 335 335 335 340 335 335 332 331 331 329 327 325 326 322 319 318
305 304 306 307 305 298 296 299 316 316 317 318 318 320 321 323 322 325 328 348 351 352 350 348 346 342 342 340 340 339 339 338 335 336 335 338 340 335 332 330 329 328 326 324 322 319 318 316 316
310 307 307 300 300 304 303 302 316 318 316 322 320 322 325 329 329 325 328 341 347 347 346 342 340 339 343 343 342 341 339 337 336 336 335 339 336 334 332 329 327 324 323 320 318 316 316 313 313
Wind_Speed
7 9 9 10 4 7 18 10 17 13 13 16 13 15 16 16 13 13 16 24 24 20 16 14 12 12 11 10 10 9 9 9 9 9 9 9 9 9 8 8 9 9 9 8 8 7 8 8 7
9 13 8 6 6 5 11 17 15 14 15 13 11 20 20 18 21 18 18 24 23 17 13 14 13 12 12 10 10 10 10 10 10 10 10 9 8 8 7 7 7 7 6 6 6 6 6 7 7
10 14 2 4 5 6 14 15 13 12 9 14 17 15 13 16 16 16 17 23 21 17 17 13 13 11 11 10 10 10 10 10 10 10 10 9 8 8 6 6 5 4 5 5 7 7 8 8 8
7 6 4 6 17 23 5 11 12 12 10 17 21 16 16 11 19 17 18 18 19 21 17 14 13 12 11 11 11 10 10 10 9 9 8 7 6 5 4 3 3 3 4 6 7 8 9 9 9
11 7 7 12 18 16 12 11 13 11 13 14 23 16 12 15 19 17 17 14 22 20 17 14 13 12 12 11 11 10 10 9 8 7 6 5 4 3 1 0 1 3 4 6 7 8 9 10 11
9 12 13 9 14 21 10 12 11 17 16 18 21 19 14 17 15 15 14 15 22 18 17 14 14 13 12 11 11 10 10 8 7 6 5 4 3 3 3 3 4 4 6 7 8 9 9 10 10
12 13 7 15 15 10 12 10 13 14 20 20 20 19 12 15 16 15 13 18 20 19 16 13 13 12 12 11 10 9 8 7 6 5 5 6 6 6 5 4 4 5 6 7 7 8 9 11 11
13 14 25 11 15 3 3 16 13 13 14 20 20 10 18 18 17 14 15 16 18 18 17 15 12 13 11 10 10 9 8 7 5 6 8 7 7 9 7 7 6 5 5 5 7 9 11 13 12
19 12 15 11 15 10 14 15 15 15 14 8 19 21 21 20 18 15 14 15 13 16 17 16 16 15 14 12 10 9 8 7 7 9 10 7 6 6 8 7 9 8 8 8 10 11 12 14 14
14 14 14 5 15 12 18 17 16 12 13 14 21 19 20 19 17 16 15 15 15 16 17 15 16 14 15 11 10 8 8 7 7 8 7 7 6 7 9 8 10 9 10 10 12 12 12 11 6
16 15 13 8 8 17 8 15 12 15 13 16 20 21 20 19 15 16 16 16 15 14 12 13 11 5 13 13 8 7 7 6 6 2 2 2 3 4 4 3 3 6 8 3 2 2 5 7 5
16 18 15 13 7 2 2 12 6 10 14 22 20 21 20 18 16 16 16 15 15 15 13 13 13 4 7 8 7 6 5 6 5 5 4 3 1 3 4 6 6 5 4 5 5 5 6 7 7
18 15 12 7 7 12 16 10 5 8 21 23 21 20 19 18 16 15 16 16 16 14 12 14 13 5 5 5 4 3 3 1 6 5 5 3 4 5 4 4 4 4 5 5 5 4 5 6 7
12 13 13 9 7 12 12 10 6 11 17 23 21 20 18 18 16 13 13 14 14 12 12 14 14 7 6 3 3 1 0 4 1 6 5 6 5 5 3 4 4 4 4 3 4 4 3 5 6
10 10 9 12 15 5 6 13 12 10 16 23 21 18 18 17 16 14 11 9 11 11 11 13 13 12 7 6 3 3 4 4 5 5 7 6 6 3 2 4 4 4 3 6 5 6 5 5 6
12 14 16 15 16 13 13 6 21 8 15 19 20 18 17 17 17 15 13 10 10 12 11 12 12 14 7 7 6 5 4 1 5 7 5 5 5 1 2 5 4 3 4 5 4 4 5 5 6
15 16 19 20 19 15 15 10 18 19 14 16 17 17 17 16 16 14 14 13 12 11 12 10 9 15 11 6 5 2 7 1 5 5 5 3 4 4 5 5 1 3 5 6 5 4 4 3 6
14 18 17 16 13 17 15 15 18 11 15 17 19 19 19 18 18 16 16 15 15 12 12 9 9 7 13 7 4 4 4 5 5 4 5 2 4 4 5 4 4 6 6 5 6 6 5 2 4
21 14 17 17 17 13 30 15 16 20 27 18 17 18 19 20 21 19 19 19 16 15 14 13 10 10 10 9 6 5 6 4 4 4 5 4 5 4 6 4 4 6 5 4 5 4 7 3 3
14 14 19 16 19 14 29 14 16 22 24 14 17 17 19 19 19 22 22 19 20 18 16 15 12 12 10 8 3 6 6 5 4 5 6 3 5 5 4 5 5 4 5 5 4 5 4 3 2
14 15 20 22 13 16 14 13 12 16 15 19 16 17 19 21 22 20 22 21 18 20 20 18 15 14 11 9 9 6 7 5 3 4 3 5 4 4 5 6 5 1 4 4 3 5 6 4 5
15 17 20 22 15 12 14 13 14 15 16 15 13 16 14 19 22 21 23 23 22 19 19 18 16 17 12 13 11 13 9 8 6 7 6 6 6 6 6 5 4 3 5 5 5 4 4 5 4
15 21 18 18 20 17 16 11 11 12 15 17 16 16 13 16 20 24 25 26 25 20 19 15 17 16 14 13 12 11 9 9 6 8 12 7 6 6 7 6 5 3 5 4 4 4 4 3 3
17 19 20 18 13 15 19 16 15 15 15 18 17 13 15 15 15 21 24 24 23 22 15 18 18 15 13 11 11 13 9 10 9 8 9 8 6 4 6 7 5 4 4 5 3 2 4 3 3
19 12 10 14 13 13 16 19 14 16 15 15 15 10 11 13 16 15 20 20 13 23 21 17 21 19 17 14 14 11 9 12 11 12 9 11 9 7 6 6 5 5 5 5 1 3 2 5 3
19 11 11 15 13 14 16 20 18 21 20 19 13 4 7 8 7 6 17 20 33 23 13 13 17 19 18 16 13 10 13 9 9 11 10 9 9 9 10 7 7 6 5 4 3 2 2 4 3
18 16 15 16 17 16 16 20 18 23 9 6 3 3 3 4 6 8 4 20 24 27 26 23 20 18 18 17 13 12 12 11 11 11 8 7 7 9 12 9 7 6 5 4 3 2 4 2 3
18 15 15 12 17 18 16 19 12 6 14 7 3 5 5 6 7 6 6 19 19 22 24 20 16 15 17 16 12 11 12 11 9 10 9 8 7 13 12 10 7 6 5 4 3 2 3 3 4
12 16 15 13 12 13 13 12 6 8 5 5 9 9 10 8 9 7 5 19 19 18 19 16 16 17 16 13 13 12 12 12 11 10 10 8 8 13 12 11 8 7 6 5 4 3 2 3 2
16 16 14 10 13 13 14 14 9 0 9 8 9 8 8 5 2 4 9 20 21 22 21 18 18 16 14 13 14 14 14 14 13 12 13 9 11 12 12 10 8 6 6 4 4 3 3 4 3
Wind_Direction
171 211 224 246 257 292 271 88 106 117 83 64 65 60 62 41 45 97 123 106 113 114 121 122 117 116 112 107 105 105 105 105 102 98 93 88 86 88 88 81 75 71 64 57 48 38 26 15 9
234 231 228 31 333 329 71 70 65 77 82 86 41 83 64 78 88 101 106 107 107 121 130 128 125 122 118 116 116 115 110 105 101 96 92 89 86 88 92 84 74 61 50 34 18 5 353 345 337
254 264 231 133 202 234 88 89 97 109 121 112 84 53 78 104 120 109 117 112 118 133 115 120 122 120 118 119 118 113 108 106 104 101 97 94 92 91 87 75 59 40 15 357 344 337 332 328 324
242 209 229 119 265 263 6 94 113 115 93 100 113 82 75 81 103 121 127 122 138 112 114 122 124 122 122 123 121 119 114 109 105 103 101 99 97 91 81 65 32 358 341 335 331 328 326 322 316
230 271 212 161 262 255 107 124 99 84 93 102 106 111 99 97 115 129 124 153 114 111 123 127 128 127 128 128 126 122 118 118 118 119 121 122 122 120 114 352 313 311 316 317 315 314 312 308 302
256 232 258 105 263 207 104 94 95 91 93 89 106 113 110 114 135 137 145 135 113 126 124 136 134 136 136 134 134 134 134 134 136 139 145 157 175 190 217 240 267 288 295 299 299 298 296 292 288
253 280 281 103 241 235 114 134 76 105 118 119 116 118 126 143 137 142 145 116 116 126 132 137 139 143 142 142 142 140 139 141 151 168 196 211 217 219 225 250 277 290 288 284 282 282 280 277 278
244 273 285 199 172 44 73 90 123 102 106 128 137 134 151 139 145 151 137 129 134 135 141 149 147 157 157 154 151 149 156 161 179 215 231 238 249 248 231 200 210 213 227 240 249 258 265 272 273
263 276 284 1 99 125 216 114 96 108 127 106 86 134 140 146 151 149 143 144 151 138 149 150 161 161 161 145 159 164 173 190 207 236 241 237 244 200 211 172 168 196 216 233 254 266 270 275 276
242 260 294 247 119 79 251 119 125 132 114 110 112 119 137 150 158 152 158 152 158 151 156 157 160 170 151 154 149 182 180 194 202 216 220 202 218 219 231 170 193 220 234 238 252 258 275 278 336
244 251 284 328 19 139 102 122 145 132 138 130 134 141 153 159 165 163 167 160 157 157 159 167 134 184 141 135 176 185 179 197 198 220 333 350 124 272 222 163 193 219 220 26 287 131 19 338 328
248 260 271 300 27 330 300 124 161 136 155 136 142 151 158 167 172 170 168 161 161 168 160 146 126 206 151 133 191 173 181 164 165 172 186 284 356 341 14 31 4 14 18 8 30 29 352 326 312
250 258 280 274 298 279 172 134 209 145 129 134 145 160 166 172 181 178 171 170 163 168 158 149 139 188 90 113 233 108 133 193 128 166 164 66 55 56 33 38 23 27 355 32 2 29 344 333 342
237 239 270 259 238 237 193 145 193 166 132 139 154 168 172 178 186 177 176 174 157 156 154 144 150 140 140 236 83 136 45 114 68 69 68 69 62 31 65 62 54 38 8 28 3 342 31 340 340
271 282 250 253 230 157 234 192 175 205 154 149 160 175 178 183 190 177 183 164 148 143 157 141 146 159 165 195 139 238 177 181 105 101 69 65 61 60 17 79 54 31 8 360 44 6 358 15 341
253 249 249 218 226 194 202 317 33 282 162 163 166 180 183 186 189 179 177 168 149 157 160 153 173 161 185 177 179 200 126 114 103 100 92 87 105 85 107 74 50 327 34 43 3 26 356 12 349
234 244 232 241 202 178 191 196 180 234 180 181 171 181 190 186 188 176 180 174 157 165 161 169 192 162 176 167 166 230 109 40 85 91 105 105 127 96 88 90 45 6 60 30 14 10 359 33 2
226 216 251 245 178 203 190 226 167 191 206 192 187 188 186 189 189 173 184 182 165 176 164 180 170 158 155 155 172 143 131 84 81 94 96 179 106 112 91 69 46 56 42 44 8 1 320 52 36
267 302 243 262 135 75 304 216 170 154 230 195 205 187 189 190 184 177 187 180 177 179 168 173 167 157 155 146 185 127 122 103 99 90 144 106 116 110 115 133 114 86 67 51 16 345 352 1 39
287 291 279 279 164 165 213 241 181 186 214 208 208 200 187 188 193 182 183 186 184 179 172 176 172 160 164 155 146 136 141 135 136 121 124 170 129 170 108 109 76 56 115 64 50 358 357 332 63
257 270 274 275 184 190 260 224 244 271 256 194 211 231 195 189 190 189 185 186 187 182 175 172 170 160 163 129 113 96 93 100 120 126 171 133 163 142 106 76 103 158 75 107 70 35 360 342 339
252 246 258 277 274 218 228 255 255 244 265 276 266 212 207 197 194 189 190 187 191 185 173 169 165 151 161 148 146 146 165 175 166 167 168 144 172 138 127 126 95 40 89 58 52 36 8 346 351
261 275 259 250 273 285 248 228 249 231 230 246 236 243 233 216 198 193 194 194 187 183 168 170 144 155 149 164 162 165 169 169 180 180 148 151 160 150 143 140 147 134 106 107 84 40 36 8 354
270 266 269 277 262 253 260 267 264 257 230 235 255 230 226 219 237 208 202 196 182 171 148 142 143 148 156 166 162 188 173 161 181 172 151 157 157 157 154 148 149 108 106 87 100 28 77 59 13
244 251 254 246 247 257 255 248 250 260 265 258 256 250 231 222 220 244 211 197 138 148 145 148 151 159 170 181 185 184 179 179 182 167 164 164 165 170 162 141 146 132 125 128 68 119 295 80 7
230 225 247 255 249 260 254 251 250 239 243 241 254 356 335 342 326 303 111 113 99 26 354 183 168 165 177 182 183 183 196 188 185 178 173 173 168 173 153 152 141 139 156 139 119 133 28 56 42
257 222 237 256 272 278 286 285 251 226 202 209 187 280 281 281 287 286 304 127 149 163 183 220 181 176 177 181 181 179 193 195 189 175 178 175 174 141 151 144 137 137 127 122 82 152 102 57 18
221 256 240 222 242 260 274 282 287 244 200 183 203 231 215 224 259 266 347 148 159 168 189 184 179 177 180 175 177 179 193 200 188 177 188 181 142 148 143 136 139 141 134 100 48 86 114 116 64
248 240 250 278 273 256 247 264 315 32 113 206 203 211 209 199 221 221 176 151 161 163 175 174 185 190 171 178 174 185 189 194 189 181 189 170 132 138 137 142 148 149 142 127 139 90 107 83 86
230 265 249 234 261 271 282 282 310 37 311 176 208 222 197 200 226 302 152 143 160 167 171 182 185 196 180 174 176 185 184 187 190 181 185 153 142 144 149 142 147 144 127 140 99 72 68 75 77